Location: Unspecified
(0.0000°N, 0.0000°E)
Time: 09:46:25
(UTC+02:00)

Ariane H10+ - Visible Passes

Search period start: 05 July 2015 00:00
Search period end: 15 July 2015 00:00
Orbit: 275 x 31607 km, 6.7° (Epoch: 04 July)

Date Brightness Start Highest point End Pass type
(mag) Time Alt. Az. Time Alt. Az. Time Alt. Az.
05 Jul 5.7 16:57:02 10° WSW 17:01:53 73° SSE 01:03:03 10° E visible
06 Jul 4.5 10:55:50 10° W 11:08:51 47° SSW 11:11:54 10° ESE visible
06 Jul 8.9 20:46:48 10° W 21:17:32 84° N 05:21:21 10° E visible
08 Jul 6.2 00:53:49 10° W 09:05:39 77° S 09:12:16 10° ESE visible
08 Jul 7.5 18:45:06 10° W 18:55:53 90° N 03:13:42 10° E visible
09 Jul 7.9 22:39:12 10° W 06:55:25 89° S 07:11:15 10° E visible
10 Jul 5.7 16:44:26 10° WSW 16:49:11 74° SSE 00:49:17 10° E visible
11 Jul 4.6 04:01:53 10° W 10:55:40 47° SSW 10:58:48 10° ESE visible
11 Jul 8.8 20:33:21 10° W 21:03:03 83° N 05:07:37 10° E visible
13 Jul 6.2 00:38:54 10° W 08:51:01 76° SSW 08:57:51 10° ESE visible
13 Jul 7.4 18:30:25 10° W 18:40:50 89° N 02:58:19 10° E visible
